sat.trackr.live / text

‹ back to catalog

SDO

NORAD 36395 · 2010-005A

PAYLOAD ACTIVE UNKNOWN

§ Identity

Operator
Country
US
Launch date
2010-02-11
Launch site
AFETR
Launch vehicle
Mass (kg)
RCS (m²)
5.17

Purposes: comms, science

External: N2YO · Heavens-Above · Gunter

§ Orbital elements

Epoch: 2026-05-24T11:29:17.443968Z

Period
1,436.10 min
Inclination
34.6052°
Eccentricity
0.0001507
Mean motion
1.00271458 rev/d
Perigee alt
35,780.3 km
Apogee alt
35,793.0 km
Semi-major
42,164.8 km
B*
0.0000e+0
RAAN
86.6986°
Arg perigee
38.9965°
Mean anomaly
186.8070°
Rev number
5,982

§ Raw data

SDO1 36395U 10005A   26144.47867412 -.00000069  00000+0  00000+0 0  99922 36395  34.6052  86.6986 0001507  38.9965 186.8070  1.00271458 59826

JSON: /api/v1/satellites/36395 · /tle

For live sub-satellite position, see the globe view (requires WebGL).

§ Visibility from observer

Set your observer location to see the next 7 days of passes ≥ 10°. The values pass through the URL so the page stays shareable.

No JS? Fill the form by hand. The geolocation button needs JavaScript.